[[{"header":{"parameterUnit":"m.s-1","parameterCategory":1,"la1":30.2991,"la2":30.254,"lo1":-89.0895,"lo2":-89.0444,"dy":0.0017,"dx":0.0017,"nx":28,"ny":28,"refTime":"2025-11-22T03:00:00:Z","depth":0,"parameterNumber":2,"parameterNumberName":"U-component_of_WINDS"},"data":[0,0,0,0,0,0,0,0,0,0,0,0,0,0,0,0,0,0,0,0,0,0,0,0,0,0,0,0,0,0,0,0,0,0,0,0,0,0,0,0,0,0,0,0,0,0,0,0,0,0,0,0,0,0,0,0,0,0,0.7599,0.7599,0,0.7631,0.7631,0.7631,0.7644,0.7644,0.7644,0.7644,0.7676,0.7677,0.7678,0,0,0,0,0,0,0,0,0,0,0,0,0,0.755,0.7551,0.7599,0.7599,0.76,0.763,0.7631,0.7631,0.7644,0.7644,0.7644,0.7644,0.7676,0.7677,0.7678,0,0,0,0,0,0,0,0,0,0,0,0,0,0.7575,0.7551,0.7599,0.761,0.7611,0.763,0.7631,0.7631,0.7644,0.7644,0.7644,0.7644,0.7675,0.7677,0.7678,0.7689,0,0,0.7682,0.7683,0,0,0,0,0,0,0,0,0.7574,0.7577,0.7608,0.7609,0.761,0.7633,0.7626,0.7651,0.7644,0.7631,0.7644,0.7643,0.7662,0.7664,0.7671,0.7691,0.7692,0.7682,0.7683,0.7684,0.7684,0,0,0,0,0,0,0,0.7572,0.7576,0.7611,0.7608,0.761,0.7613,0.7617,0.763,0.7647,0.7632,0.7633,0.7637,0.7663,0.7669,0.7671,0.7692,0.7682,0.7684,0.7685,0.7685,0.7725,0.7725,0,0,0,0,0,0,0.7569,0.7574,0.761,0.7612,0.7591,0.7614,0.7618,0.7626,0.7647,0.765,0.7637,0.7637,0.7667,0.767,0.7673,0.7688,0.7684,0.7685,0.7686,0.7725,0.7725,0.7725,0,0,0,0,0,0,0.7567,0.7572,0.7609,0.7594,0.7599,0.7615,0.7624,0.7627,0.7633,0.765,0.7653,0.7641,0.7667,0.7671,0.7685,0.7689,0.7686,0.7687,0.7724,0.7725,0.7725,0.7717,0,0,0,0,0,0,0.7566,0.7571,0.7575,0.7594,0.7599,0.7621,0.7624,0.7627,0.7636,0.7636,0.7654,0.7657,0.7667,0.7683,0.7687,0.7691,0.7688,0.7724,0.7724,0.7725,0.7717,0.7717,0.7717,0,0,0,0,0,0.7564,0.7571,0.7575,0.7579,0.7605,0.7621,0.7624,0.7635,0.7636,0.764,0.7652,0.7657,0.7688,0.7684,0.7689,0.7693,0.7724,0.7724,0.7725,0.7717,0.7717,0.7717,0,0,0,0,0,0,0.7552,0.7574,0.7578,0.7592,0.7605,0.7623,0.7629,0.7635,0.7647,0.7648,0.7661,0.7665,0.7679,0.7687,0.7683,0.7706,0.7706,0.7708,0.7699,0.77,0.77,0.7697,0.7689,0,0,0,0,0,0.7551,0.7563,0.7581,0.7591,0.7597,0.7612,0.7619,0.7627,0.7641,0.7646,0.7658,0.7671,0.7684,0.7692,0.7705,0.7719,0.7724,0.7724,0.7724,0.7724,0.7725,0.7734,0.7735,0.7727,0.7727,0.7727,0,0,0.7549,0.7563,0.7569,0.7589,0.76,0.7612,0.7616,0.7628,0.7637,0.7648,0.7663,0.7672,0.7688,0.7702,0.7709,0.771,0.7729,0.7725,0.7725,0.7726,0.7735,0.7736,0.7736,0.7727,0.7727,0.7727,0,0,0.7552,0.7562,0.7573,0.7584,0.76,0.761,0.7613,0.7631,0.7638,0.7653,0.7661,0.7672,0.7694,0.7705,0.7714,0.7722,0.7728,0.7726,0.7726,0.7735,0.7735,0.7736,0.774,0.7741,0.7727,0.7727,0.7727,0,0.7547,0.7565,0.7577,0.7589,0.7598,0.7609,0.7619,0.763,0.7649,0.7655,0.7656,0.7685,0.7696,0.7714,0.7716,0.7722,0.7726,0.7724,0.7734,0.7735,0.7736,0.7739,0.7741,0.7727,0.7727,0.7727,0.7727,0,0.7559,0.7571,0.7577,0.7597,0.7606,0.7618,0.7632,0.7641,0.7648,0.7658,0.7674,0.7688,0.7704,0.7709,0.7716,0.7729,0.7729,0.7732,0.7733,0.7736,0.774,0.7741,0.7726,0.7726,0.7726,0.7726,0,0,0.7553,0.758,0.7582,0.7592,0.7611,0.7621,0.7634,0.765,0.7658,0.7671,0.7682,0.7701,0.7705,0.7714,0.7723,0.773,0.7737,0.7733,0.7733,0.7733,0.7753,0.775,0.7751,0.7741,0.7742,0.7742,0.7751,0,0.7558,0.758,0.7592,0.761,0.7622,0.7633,0.7644,0.7658,0.7668,0.768,0.7692,0.7705,0.7708,0.7714,0.7722,0.7734,0.7741,0.7734,0.7752,0.7752,0.7747,0.7753,0.775,0.7759,0.7753,0.7753,0.7753,0,0.7567,0.7581,0.7599,0.7619,0.7625,0.7634,0.7651,0.7662,0.7678,0.7685,0.7697,0.7706,0.772,0.772,0.774,0.7735,0.7743,0.775,0.7751,0.7753,0.7753,0.7755,0.7762,0.7763,0.7755,0.7755,0.7755,0,0.7561,0.7585,0.76,0.7607,0.763,0.7637,0.7647,0.7663,0.7673,0.7687,0.7694,0.771,0.7719,0.7731,0.7744,0.7743,0.7763,0.7765,0.777,0.777,0.7773,0.7773,0.7781,0.7779,0.7779,0.7779,0.7779,0,0.7566,0.7577,0.7598,0.7606,0.762,0.7634,0.7647,0.7658,0.7672,0.7684,0.7695,0.7706,0.7722,0.7735,0.7746,0.7761,0.7765,0.7771,0.7774,0.777,0.7769,0.7776,0.7775,0.7779,0.7779,0.7779,0.7779,0,0.7561,0.7576,0.7593,0.7614,0.7619,0.7628,0.7646,0.7656,0.7667,0.7682,0.7686,0.7704,0.772,0.7735,0.7756,0.7763,0.7779,0.7782,0.7773,0.7775,0.778,0.7779,0.7792,0.7794,0.779,0.779,0.779,0,0.7563,0.7572,0.7594,0.7603,0.7613,0.7627,0.7637,0.7652,0.7662,0.7682,0.769,0.7707,0.7721,0.7746,0.7761,0.7778,0.7782,0.7785,0.7784,0.7781,0.7782,0.7781,0.7783,0.7785,0.7785,0.7785,0.7785,0,0.7565,0.7572,0.7586,0.7603,0.7615,0.7629,0.7644,0.765,0.7668,0.7679,0.7696,0.7707,0.773,0.7746,0.7765,0.7776,0.7783,0.7785,0.7787,0.7784,0.7778,0.7782,0.7773,0.7785,0.7785,0.7785,0.7785,0.7785,0.7564,0.7573,0.759,0.7606,0.7619,0.7632,0.7643,0.7656,0.767,0.769,0.7698,0.7715,0.7733,0.7758,0.7769,0.7783,0.7785,0.7788,0.7789,0.7789,0.7789,0.7776,0.7787,0.7787,0.7787,0.7787,0.7787,0,0.7566,0.7579,0.7593,0.7613,0.7626,0.7633,0.765,0.766,0.7675,0.7691,0.7705,0.7725,0.7742,0.7759,0.7777,0.7785,0.7789,0.7789,0.7789,0.7791,0.7786,0.7783,0.7786,0.7786,0.7786,0.7786,0.7786,0.7786,0.7569,0.7585,0.7594,0.7617,0.7629,0.7646,0.7656,0.7669,0.7681,0.7703,0.7717,0.7729,0.7745,0.7765,0.7781,0.7785,0.7792,0.7791,0.7796,0.7791,0.7791,0.7791,0.7788,0.7792,0.7792,0.78,0.78,0.78]},{"header":{"parameterUnit":"m.s-1","parameterCategory":1,"la1":30.2991,"la2":30.254,"lo1":-89.0895,"lo2":-89.0444,"dy":0.0017,"dx":0.0017,"nx":28,"ny":28,"refTime":"2025-11-22T03:00:00:Z","depth":0,"parameterNumber":3,"parameterNumberName":"V-component_of_WINDS"},"data":[0,0,0,0,0,0,0,0,0,0,0,0,0,0,0,0,0,0,0,0,0,0,0,0,0,0,0,0,0,0,0,0,0,0,0,0,0,0,0,0,0,0,0,0,0,0,0,0,0,0,0,0,0,0,0,0,0,0,-2.2261,-2.2262,0,-2.2295,-2.2295,-2.2295,-2.2282,-2.2281,-2.228,-2.228,-2.231,-2.2312,-2.2313,0,0,0,0,0,0,0,0,0,0,0,0,0,-2.2186,-2.2187,-2.2261,-2.2262,-2.2262,-2.2295,-2.2295,-2.2296,-2.2282,-2.2281,-2.228,-2.2279,-2.231,-2.2311,-2.2313,0,0,0,0,0,0,0,0,0,0,0,0,0,-2.2219,-2.2188,-2.2261,-2.2259,-2.226,-2.2295,-2.2295,-2.2296,-2.2282,-2.2281,-2.228,-2.2279,-2.2309,-2.2311,-2.2314,-2.2351,0,0,-2.2321,-2.2322,0,0,0,0,0,0,0,0,-2.2217,-2.2221,-2.2259,-2.226,-2.226,-2.2283,-2.228,-2.2314,-2.2282,-2.2273,-2.228,-2.2278,-2.2302,-2.2305,-2.2313,-2.2353,-2.2354,-2.2321,-2.2322,-2.2323,-2.2324,0,0,0,0,0,0,0,-2.2215,-2.222,-2.2274,-2.226,-2.226,-2.2257,-2.226,-2.2286,-2.2294,-2.2274,-2.2273,-2.2278,-2.2302,-2.2311,-2.2314,-2.2354,-2.2321,-2.2323,-2.2324,-2.2325,-2.2431,-2.2432,0,0,0,0,0,0,-2.2212,-2.2218,-2.2273,-2.2275,-2.2235,-2.2259,-2.2263,-2.2277,-2.2293,-2.2295,-2.2279,-2.2277,-2.2308,-2.2311,-2.2315,-2.2364,-2.2323,-2.2325,-2.2327,-2.2429,-2.2431,-2.2433,0,0,0,0,0,0,-2.2211,-2.2218,-2.2272,-2.2247,-2.2253,-2.2262,-2.2277,-2.2278,-2.2287,-2.2297,-2.2298,-2.2287,-2.2307,-2.2312,-2.2344,-2.2364,-2.2326,-2.2328,-2.2428,-2.243,-2.2432,-2.2459,0,0,0,0,0,0,-2.2209,-2.2217,-2.2231,-2.2247,-2.2255,-2.23,-2.2278,-2.2279,-2.2292,-2.229,-2.2305,-2.2306,-2.2306,-2.234,-2.2346,-2.2367,-2.233,-2.2426,-2.2429,-2.2431,-2.2456,-2.2462,-2.2466,0,0,0,0,0,-2.2206,-2.2236,-2.2232,-2.2239,-2.2273,-2.2301,-2.2306,-2.2307,-2.2293,-2.2308,-2.2315,-2.2306,-2.2361,-2.2344,-2.235,-2.2372,-2.2425,-2.2428,-2.2431,-2.2454,-2.2461,-2.2466,0,0,0,0,0,0,-2.2219,-2.2237,-2.2234,-2.2269,-2.2284,-2.2299,-2.2317,-2.2313,-2.2331,-2.2328,-2.2327,-2.2331,-2.2365,-2.2371,-2.2351,-2.2411,-2.2391,-2.2395,-2.2406,-2.2413,-2.2417,-2.2416,-2.2332,0,0,0,0,0,-2.2227,-2.2249,-2.2263,-2.2294,-2.2302,-2.2309,-2.2321,-2.2321,-2.2336,-2.2341,-2.235,-2.2364,-2.2385,-2.2399,-2.2418,-2.2457,-2.2462,-2.2475,-2.248,-2.2484,-2.2489,-2.2514,-2.2521,-2.2443,-2.2443,-2.2443,0,0,-2.2242,-2.2254,-2.2268,-2.2297,-2.2308,-2.2332,-2.2314,-2.2338,-2.2356,-2.2344,-2.2377,-2.2384,-2.24,-2.2437,-2.2453,-2.2443,-2.2512,-2.2489,-2.2492,-2.2494,-2.2518,-2.2525,-2.2532,-2.2445,-2.2445,-2.2445,0,0,-2.2282,-2.2293,-2.2321,-2.2334,-2.2353,-2.2358,-2.2365,-2.2382,-2.2387,-2.2419,-2.2413,-2.2433,-2.2468,-2.2482,-2.2493,-2.2543,-2.2536,-2.2549,-2.2576,-2.26,-2.2606,-2.2612,-2.2632,-2.264,-2.2553,-2.2553,-2.2553,0,-2.2297,-2.2334,-2.2336,-2.2363,-2.2377,-2.237,-2.24,-2.2412,-2.2435,-2.2445,-2.2434,-2.2481,-2.2491,-2.2533,-2.2546,-2.2554,-2.2563,-2.2547,-2.2605,-2.2611,-2.2616,-2.2636,-2.2643,-2.2554,-2.2554,-2.2554,-2.2554,0,-2.2354,-2.238,-2.24,-2.2427,-2.2443,-2.2471,-2.2478,-2.2494,-2.2493,-2.25,-2.2535,-2.2547,-2.2571,-2.258,-2.2578,-2.2623,-2.2616,-2.2605,-2.2585,-2.2625,-2.2644,-2.2651,-2.2557,-2.2556,-2.2556,-2.2555,0,0,-2.2401,-2.2432,-2.244,-2.2454,-2.2476,-2.2496,-2.2524,-2.255,-2.2565,-2.2582,-2.2608,-2.264,-2.2631,-2.2644,-2.2644,-2.2665,-2.2708,-2.2651,-2.2652,-2.2664,-2.2762,-2.2772,-2.2781,-2.2703,-2.2705,-2.2706,-2.2762,0,-2.2445,-2.2498,-2.2503,-2.255,-2.2575,-2.2571,-2.2596,-2.2613,-2.2621,-2.2644,-2.2651,-2.2676,-2.266,-2.2669,-2.2689,-2.2698,-2.2728,-2.2694,-2.2728,-2.273,-2.2727,-2.279,-2.28,-2.2852,-2.2769,-2.277,-2.2771,0,-2.2503,-2.2526,-2.2577,-2.26,-2.2611,-2.2634,-2.266,-2.2681,-2.2701,-2.2705,-2.2722,-2.272,-2.2751,-2.2729,-2.2773,-2.275,-2.2765,-2.2771,-2.2773,-2.2778,-2.2754,-2.2799,-2.2868,-2.2877,-2.2782,-2.2781,-2.278,0,-2.2537,-2.258,-2.2617,-2.2628,-2.2655,-2.2672,-2.2684,-2.2703,-2.272,-2.2742,-2.2753,-2.2778,-2.2792,-2.2812,-2.2817,-2.28,-2.2862,-2.2839,-2.2868,-2.2868,-2.2882,-2.2881,-2.2957,-2.2887,-2.2887,-2.2887,-2.2887,0,-2.2586,-2.2618,-2.2633,-2.2656,-2.2693,-2.2698,-2.2734,-2.2745,-2.2763,-2.2788,-2.2784,-2.2808,-2.2813,-2.2838,-2.2842,-2.288,-2.2885,-2.2891,-2.2892,-2.2893,-2.2892,-2.2903,-2.2901,-2.2889,-2.2888,-2.2888,-2.2888,0,-2.263,-2.2641,-2.2682,-2.2706,-2.2713,-2.2739,-2.2759,-2.2782,-2.2791,-2.2823,-2.2831,-2.2844,-2.2875,-2.2882,-2.2916,-2.2919,-2.2965,-2.2961,-2.2959,-2.296,-2.2989,-2.2987,-2.3076,-2.3089,-2.3008,-2.3009,-2.301,0,-2.2662,-2.2687,-2.2715,-2.2734,-2.2747,-2.2776,-2.2794,-2.2801,-2.282,-2.2847,-2.2867,-2.2897,-2.2922,-2.297,-2.2983,-2.301,-2.3009,-2.3038,-2.3013,-2.3014,-2.3013,-2.3012,-2.3016,-2.3043,-2.3044,-2.3045,-2.3045,0,-2.2719,-2.2724,-2.2751,-2.2782,-2.2805,-2.2828,-2.285,-2.2865,-2.2876,-2.2897,-2.293,-2.2949,-2.2987,-2.3018,-2.3047,-2.3058,-2.3055,-2.3053,-2.3062,-2.3064,-2.3063,-2.3067,-2.2975,-2.3051,-2.3051,-2.305,-2.305,-2.305,-2.2759,-2.2783,-2.2809,-2.284,-2.2859,-2.2881,-2.2905,-2.2919,-2.2946,-2.298,-2.2982,-2.3018,-2.304,-2.3079,-2.3093,-2.3121,-2.3112,-2.3123,-2.3127,-2.313,-2.3135,-2.3057,-2.3126,-2.3125,-2.3125,-2.3125,-2.3125,0,-2.2818,-2.2836,-2.2865,-2.2899,-2.2924,-2.292,-2.2946,-2.2968,-2.3,-2.3023,-2.3048,-2.3087,-2.3118,-2.3135,-2.3166,-2.3186,-2.3185,-2.3194,-2.3193,-2.3197,-2.3139,-2.313,-2.3194,-2.3194,-2.3194,-2.3194,-2.3194,-2.3194,-2.2852,-2.2894,-2.2904,-2.2956,-2.2972,-2.3009,-2.3025,-2.3047,-2.3065,-2.311,-2.3137,-2.3148,-2.3169,-2.3202,-2.3231,-2.3235,-2.3248,-2.3259,-2.3262,-2.3208,-2.3201,-2.3194,-2.3186,-2.3261,-2.3261,-2.3318,-2.3318,-2.3319]}]]